Regional Weather Roundup
Issued by NWS

Home | Current Version | Previous Version | Text Only | Print | Product List | Glossary Off
Versions: 1 2 3 4 5 6 7 8 9 10 11 12 13 14 15 16 17 18 19 20 21 22 23 24 25 26 27

000
ASUS43 KDMX 222007
RWRIA

WEATHER ROUNDUP FOR IOWA
NATIONAL WEATHER SERVICE DES MOINES IA
300 PM CDT TUE APR 22 2014

NOTE: "FAIR" INDICATES FEW OR NO CLOUDS BELOW 12,000 FEET WITH NO
SIGNIFICANT WEATHER AND/OR OBSTRUCTIONS TO VISIBILITY.

* - THESE STATIONS ARE NOT NWS STATIONS...THUS NOT UNDER NWS
QUALITY CONTROL.  THEY ALSO DO NOT REPORT WEATHER SUCH
AS PRECIPITATION OR FOG.

IAZ001>003-012>014-020>022-031>034-043>046-222100-
   NORTHWEST IOWA

CITY           SKY/WX    TMP DP  RH WIND       PRES   REMARKS
CARROLL *      SUNNY     63  32  31 NE9       30.08F
CHEROKEE *     SUNNY     68  34  28 CALM      30.07F
DENISON *      SUNNY     63  32  31 SE6       30.07F
LE MARS *      SUNNY     64  30  27 VRB6G13   30.06F HAZE
ORANGE CITY *  SUNNY     64  27  24 S6        30.06F
SHELDON *      SUNNY     64  32  29 SE12      30.05F
SIOUX CITY     MOSUNNY   67  35  30 S10G21    30.06F
SPENCER        SUNNY     63  32  31 E5        30.07F
STORM LAKE *   SUNNY     61  32  33 CALM      30.09F
$$

IAZ055>058-069>071-079>083-090>094-222100-
   SOUTHWEST IOWA

CITY           SKY/WX    TMP DP  RH WIND       PRES   REMARKS
ATLANTIC *     SUNNY     64  34  32 NE7       30.08F
AUDUBON *      SUNNY     64  21  19 E5        30.09F
CLARINDA *     SUNNY     66  30  26 NW5G13    30.10S
COUNCIL BLFS * SUNNY     64  34  32 VRB3      30.07F
CRESTON *      SUNNY     63  32  31 N9        30.09S
HARLAN  *      SUNNY     64  34  32 SE6       30.11F
LAMONI         SUNNY     64  32  30 VRB6      30.08F
RED OAK *      SUNNY     64  34  32 NW3       30.09S
SHENANDOAH *   SUNNY     66  34  30 E5        30.09F
$$

IAZ047>049-059>061-072>074-084-222100-
   CENTRAL IOWA

CITY           SKY/WX    TMP DP  RH WIND       PRES   REMARKS
AMES           SUNNY     62  32  32 N13       30.08F
ANKENY *       SUNNY     63  32  31 N9G15     30.08F
CHARITON *     SUNNY     63  34  34 N8G18     30.08F
DES MOINES     MOSUNNY   65  30  27 N9        30.08F
GRINNELL*      SUNNY     63  30  29 NW14G23   30.07F
KNOXVILLE *    SUNNY     63  30  29 N8G22     30.07S
MARSHALLTOWN   SUNNY     61  33  35 N15G25    30.07F
NEWTON *       SUNNY     63  30  29 N14G21    30.08F
PELLA *        SUNNY     64  32  29 N9G16     30.08F
PERRY *          N/A     63  25  23 NE12      30.07F
$$

IAZ004>006-015-016-023>025-035-036-222100-
   NORTH CENTRAL IOWA

CITY           SKY/WX    TMP DP  RH WIND       PRES   REMARKS
ALGONA *       SUNNY     59  30  33 N12       30.09S
CLARION *      SUNNY     59  34  38 N9G15     30.08F
ESTHERVILLE    SUNNY     61  33  35 NE5       30.07F
FORT DODGE *   SUNNY     61  34  36 CALM      30.10F
MASON CITY     SUNNY     59  34  39 N15       30.09F
FOREST CITY *  SUNNY     59  34  38 N14       30.07F
IOWA FALLS *     N/A     59  34  38 N10G17    30.09F
$$

IAZ007>011-017>019-026>030-037>042-050>054-066-222100-
   NORTHEAST IOWA

CITY           SKY/WX    TMP DP  RH WIND       PRES   REMARKS
CEDAR RAPIDS   SUNNY     60  32  34 N16G23    30.04F
CHARLES CITY * SUNNY     55  37  50 N15G23    30.08F
CLINTON *      MOSUNNY   63  27  25 NW17G23   30.03F
DECORAH *      SUNNY     54  30  40 NW13G26   30.04F
DUBUQUE        MOSUNNY   58  29  33 NW18      30.02S
MONTICELLO *   SUNNY     61  28  29 NW14G24   30.03S
OELWEIN *      SUNNY    N/A N/A N/A N17G25    30.07S
WATERLOO       SUNNY     60  32  34 N18G26    30.07F
$$

IAZ064-065-067-068-078-222100-
   EAST CENTRAL IOWA

CITY           SKY/WX    TMP DP  RH WIND       PRES   REMARKS
DAVENPORT      SUNNY     63  29  27 NW17G24   30.03F
IOWA CITY      SUNNY     61  31  32 NW18G26   30.05F
MT. PLEASANT * SUNNY     64  27  24 NW15G23   30.05F
MUSCATINE *    SUNNY     63  30  29 NW17G23   30.04S
QUAD CITIES    SUNNY     62  29  28 NW14G22   30.01S
$$

IAZ062-063-075>077-085>089-095>099-222100-
   SOUTHEAST IOWA

CITY           SKY/WX    TMP DP  RH WIND       PRES   REMARKS
BURLINGTON     SUNNY     63  29  27 NW13G23   30.03F
FAIRFIELD *    SUNNY     63  32  31 N13G21    30.06F
FORT MADISON * SUNNY     63  30  29 NW13G23   30.05F
KEOKUK *       SUNNY     63  32  31 NW17G23   30.04F
OSKALOOSA *      N/A     63  30  29 N13G20    30.06F
CENTERVILLE *  SUNNY     63  34  34 NW9G24    30.09F
OTTUMWA        SUNNY     63  32  31 N13       30.06F
WASHINGTON *   SUNNY     63  30  29 NW15G26   30.05F
$$

ABBREVIATIONS USED IN REMARKS
   TC - TEMPERATURES IN CELSIUS
  WCI - WIND CHILL INDEX
   HX - HEAT INDEX
  VSB - VISIBILITY
$$




USA.gov is the U.S. government's official web portal to all federal, state and local government web resources and services.